De Queen, AR

12:40 PM CST on January 18, 2020 (GMT -0600)
Helms Sevier County

Weather History for KDEQ - October, 2019

Change the Weather History Date:

Friday, October 4, 2019

  Actual Average Record
Temperature  
Mean Temperature 73 °F 67 °F  
Max Temperature 79 °F 79 °F 95 °F (1963)
Min Temperature 67 °F 54 °F 34 °F (1975)
Degree Days  
Heating Degree Days 0 2  
Month to date heating degree days 0 8  
Since 1 July heating degree days 0 17  
Cooling Degree Days 8 4  
Month to date cooling degree days 53 16  
Year to date cooling degree days 2270 1881  
Growing Degree Days 23 (Base 50)    
Moisture  
Dew Point 67 °F    
Average Humidity 81    
Maximum Humidity 93    
Minimum Humidity 67    
Precipitation  
Precipitation T in 0.16 in 1.48 in (1959)
Month to date precipitation T 0.64  
Year to date precipitation 42.09 35.84  
Snow  
Snow 0.00 in - - ()
Month to date snowfall 0.0  
Since 1 July snowfall 0.0  
Since 1 September snowfall 0.0  
Snow Depth 0.00 in    
Sea Level Pressure  
Sea Level Pressure 30.09 in    
Wind  
Wind Speed 4 mph ()    
Max Wind Speed 14 mph    
Max Gust Speed 18 mph    
Visibility 8.4 miles    
Events Rain , Thunderstorm    
T = Trace of Precipitation, MM = Missing Value Source: Averaged Metar Reports

Daily Weather History Graph

Daily Weather History Graph

Search for Another Location

Airport or City:

Astronomy

Oct. 04, 2019 Rise Set
Actual Time 7:14 AM CDT 6:58 PM CDT
Civil Twilight 6:49 AM CDT 7:22 PM CDT
Nautical Twilight 6:20 AM CDT 7:51 PM CDT
Astronomical Twilight 5:51 AM CDT 8:20 PM CDT
Moon 1:32 PM CDT (10/4) 11:42 PM CDT (10/4)
Length of Visible Light 12h 33m
Length of Day
11h 43m
Waxing Crescent, 40% of the Moon is Illuminated
Oct 4
Waxing Crescent
Oct 5
First Quarter
Oct 13
Full
Oct 21
Last Quarter
Oct 27
New

Hourly Weather History & Observations

Time (CDT) Temp. Dew Point Humidity Pressure Visibility Wind Dir Wind Speed Gust Speed Precip Events Conditions
12:53 AM 75.0 °F 71.1 °F 87% 30.07 in 7.0 mi Calm Calm - N/A   Clear
1:53 AM 73.0 °F 71.1 °F 93% 30.07 in 4.0 mi Calm Calm - N/A   Clear
2:53 AM 73.0 °F 70.0 °F 90% 30.07 in 4.0 mi Calm Calm - N/A   Clear
3:53 AM 72.0 °F 69.1 °F 91% 30.07 in 3.0 mi Calm Calm - N/A   Clear
4:53 AM 73.0 °F 70.0 °F 90% 30.07 in 6.0 mi Calm Calm - N/A   Clear
5:53 AM 72.0 °F 70.0 °F 93% 30.08 in 4.0 mi Calm Calm - N/A   Clear
6:53 AM 73.0 °F 70.0 °F 90% 30.09 in 7.0 mi Calm Calm - N/A   Clear
7:53 AM 73.0 °F 69.1 °F 87% 30.11 in 7.0 mi ENE 4.6 mph - N/A   Clear
8:53 AM 73.9 °F 68.0 °F 82% 30.12 in 10.0 mi ENE 6.9 mph - 0.00 in   Partly Cloudy
9:53 AM 73.9 °F 66.0 °F 76% 30.13 in 10.0 mi East 5.8 mph - N/A   Mostly Cloudy
10:53 AM 75.0 °F 64.0 °F 69% 30.14 in 10.0 mi ENE 10.4 mph - N/A   Partly Cloudy
11:53 AM 75.0 °F 64.0 °F 69% 30.14 in 10.0 mi East 10.4 mph - 0.00 in Thunderstorm Scattered Clouds
12:19 PM 73.9 °F 64.0 °F 71% 30.14 in 10.0 mi East 9.2 mph - 0.00 in Rain Light Rain
12:53 PM 75.0 °F 64.9 °F 71% 30.12 in 10.0 mi ENE 9.2 mph - 0.00 in   Overcast
1:07 PM 75.0 °F 64.9 °F 71% 30.13 in 10.0 mi ENE 6.9 mph - N/A Thunderstorm Overcast
1:36 PM 75.0 °F 64.9 °F 71% 30.12 in 10.0 mi ENE 6.9 mph - N/A   Overcast
1:53 PM 75.9 °F 66.0 °F 71% 30.10 in 10.0 mi ENE 8.1 mph - N/A   Overcast
2:01 PM 75.9 °F 66.0 °F 71% 30.11 in 10.0 mi East 11.5 mph - N/A Thunderstorm Overcast
2:18 PM 77.0 °F 66.0 °F 69% 30.10 in 10.0 mi ENE 11.5 mph - N/A   Mostly Cloudy
2:53 PM 75.9 °F 66.0 °F 71% 30.09 in 10.0 mi East 12.7 mph - N/A   Scattered Clouds
3:53 PM 78.1 °F 66.9 °F 68% 30.08 in 10.0 mi ENE 12.7 mph - N/A   Mostly Cloudy
4:53 PM 78.1 °F 66.9 °F 68% 30.06 in 10.0 mi ENE 8.1 mph - N/A   Mostly Cloudy
5:53 PM 77.0 °F 68.0 °F 74% 30.05 in 10.0 mi East 5.8 mph - N/A   Clear
6:53 PM 73.9 °F 68.0 °F 82% 30.04 in 10.0 mi ENE 4.6 mph - N/A   Clear
7:53 PM 72.0 °F 66.9 °F 84% 30.06 in 10.0 mi East 3.5 mph - N/A   Clear
8:53 PM 71.1 °F 66.9 °F 87% 30.07 in 8.0 mi Calm Calm - N/A   Clear
9:39 PM 70.0 °F 66.9 °F 90% 30.09 in 9.0 mi East 3.5 mph - N/A   Partly Cloudy
9:53 PM 69.1 °F 66.0 °F 90% 30.08 in 8.0 mi ENE 4.6 mph - N/A   Clear
10:21 PM 69.1 °F 66.9 °F 93% 30.09 in 7.0 mi East 3.5 mph - N/A   Partly Cloudy
10:53 PM 69.1 °F 66.9 °F 93% 30.07 in 7.0 mi East 4.6 mph - N/A   Clear
11:53 PM 68.0 °F 66.0 °F 93% 30.06 in 8.0 mi East 3.5 mph - N/A   Clear